Year,Month,Day,Hour,Minute,Value (Times are PST for temperature in C)
2008,08,25,15,02,18.60
2008,08,25,15,03,18.70
2008,08,25,15,04,18.80
2008,08,25,15,05,18.80
2008,08,25,15,06,18.80
2008,08,25,15,07,18.90
2008,08,25,15,08,18.90
2008,08,25,15,09,18.90
2008,08,25,15,10,18.90
2008,08,25,15,11,18.90
2008,08,25,15,12,18.90
2008,08,25,15,13,18.90
2008,08,25,15,14,18.90
2008,08,25,15,15,18.90
2008,08,25,15,16,18.90
2008,08,25,15,17,19.00
2008,08,25,15,18,19.10
2008,08,25,15,19,19.30
2008,08,25,15,20,19.40
2008,08,25,15,21,19.60
2008,08,25,15,22,19.70
2008,08,25,15,23,19.80
2008,08,25,15,24,19.90
2008,08,25,15,25,19.90
2008,08,25,15,26,20.00
2008,08,25,15,27,20.10
2008,08,25,15,28,20.30
2008,08,25,15,29,20.40
2008,08,25,15,30,20.50
2008,08,25,15,31,20.70
2008,08,25,15,32,20.80
2008,08,25,15,33,20.90
2008,08,25,15,34,20.90
2008,08,25,15,35,21.00
2008,08,25,15,36,21.00
2008,08,25,15,37,21.10
2008,08,25,15,38,21.10
2008,08,25,15,39,21.10
2008,08,25,15,40,21.00
2008,08,25,15,41,21.00
2008,08,25,15,42,20.90
2008,08,25,15,43,20.90
2008,08,25,15,44,20.90
2008,08,25,15,45,21.00
2008,08,25,15,46,21.00
2008,08,25,15,47,21.00
2008,08,25,15,48,21.00
2008,08,25,15,49,20.90
2008,08,25,15,50,20.90
2008,08,25,15,51,20.90
2008,08,25,15,52,20.90
2008,08,25,15,53,20.90
2008,08,25,15,54,21.00
2008,08,25,15,55,21.10
2008,08,25,15,56,21.10
2008,08,25,15,57,21.20
2008,08,25,15,58,21.30
2008,08,25,15,59,21.30
2008,08,25,16,00,21.30
2008,08,25,16,01,21.30
2008,08,25,16,02,21.30
2008,08,25,16,03,21.30
2008,08,25,16,04,21.20
2008,08,25,16,05,21.10
2008,08,25,16,06,21.10
2008,08,25,16,07,21.00
2008,08,25,16,08,21.00
2008,08,25,16,09,21.00
2008,08,25,16,10,20.90
2008,08,25,16,11,20.80
2008,08,25,16,12,20.70
2008,08,25,16,13,20.60
2008,08,25,16,14,20.50
2008,08,25,16,15,20.30
2008,08,25,16,16,20.20
2008,08,25,16,17,20.10
2008,08,25,16,18,20.00
2008,08,25,16,19,19.90
2008,08,25,16,20,19.90
2008,08,25,16,21,19.80
2008,08,25,16,22,19.70
2008,08,25,16,23,19.60
2008,08,25,16,24,19.60
2008,08,25,16,25,19.60
2008,08,25,16,26,19.50
2008,08,25,16,27,19.50
2008,08,25,16,28,19.40
2008,08,25,16,29,19.40
2008,08,25,16,30,19.40
2008,08,25,16,31,19.30
2008,08,25,16,32,19.30
2008,08,25,16,33,19.30
2008,08,25,16,34,19.30
2008,08,25,16,35,19.30
2008,08,25,16,36,19.30
2008,08,25,16,37,19.20
2008,08,25,16,38,19.10
2008,08,25,16,39,19.10
2008,08,25,16,40,19.00
2008,08,25,16,41,19.00
2008,08,25,16,42,19.00
2008,08,25,16,43,18.90
2008,08,25,16,44,18.90
2008,08,25,16,45,18.90
2008,08,25,16,46,18.90
2008,08,25,16,47,18.90
2008,08,25,16,48,18.90
2008,08,25,16,49,18.90
2008,08,25,16,50,18.90
2008,08,25,16,51,18.90
2008,08,25,16,52,18.90
2008,08,25,16,53,18.90
2008,08,25,16,54,19.00
2008,08,25,16,55,19.00
2008,08,25,16,56,19.10
2008,08,25,16,57,19.20
2008,08,25,16,58,19.30
2008,08,25,16,59,19.30
2008,08,25,17,00,19.40
2008,08,25,17,01,19.40
2008,08,25,17,02,19.50
2008,08,25,17,03,19.60
2008,08,25,17,04,19.60
2008,08,25,17,05,19.70
2008,08,25,17,06,19.80
2008,08,25,17,07,19.80
2008,08,25,17,08,19.90
2008,08,25,17,09,19.90
2008,08,25,17,10,19.90
2008,08,25,17,11,19.80
2008,08,25,17,12,19.80
2008,08,25,17,13,19.80
2008,08,25,17,14,19.70
2008,08,25,17,15,19.70
2008,08,25,17,16,19.70
2008,08,25,17,17,19.70
2008,08,25,17,18,19.60
2008,08,25,17,19,19.60
2008,08,25,17,20,19.60
2008,08,25,17,21,19.60
2008,08,25,17,22,19.60
2008,08,25,17,23,19.60
2008,08,25,17,24,19.60
2008,08,25,17,25,19.50
2008,08,25,17,26,19.50
2008,08,25,17,27,19.40
2008,08,25,17,28,19.40
2008,08,25,17,29,19.40
2008,08,25,17,30,19.40
2008,08,25,17,31,19.40
2008,08,25,17,32,19.40
2008,08,25,17,33,19.40
2008,08,25,17,34,19.40
2008,08,25,17,35,19.40
2008,08,25,17,36,19.40
2008,08,25,17,37,19.30
2008,08,25,17,38,19.30
2008,08,25,17,39,19.20
2008,08,25,17,40,19.20
2008,08,25,17,41,19.10
2008,08,25,17,42,19.10
2008,08,25,17,43,19.10
2008,08,25,17,44,19.00
2008,08,25,17,45,19.00
2008,08,25,17,46,19.00
2008,08,25,17,47,18.90
2008,08,25,17,48,18.90
2008,08,25,17,49,18.80
2008,08,25,17,50,18.70
2008,08,25,17,51,18.70
2008,08,25,17,52,18.70
2008,08,25,17,53,18.70
2008,08,25,17,54,18.70
2008,08,25,17,55,18.70
2008,08,25,17,56,18.60
2008,08,25,17,57,18.60
2008,08,25,17,58,18.60
2008,08,25,17,59,18.70
2008,08,25,18,00,18.70
2008,08,25,18,01,18.70
2008,08,25,18,02,18.70
2008,08,25,18,03,18.80
2008,08,25,18,04,18.80
2008,08,25,18,05,18.80
2008,08,25,18,06,18.80
2008,08,25,18,07,18.80
2008,08,25,18,08,18.80
2008,08,25,18,09,18.80
2008,08,25,18,10,18.80
2008,08,25,18,11,18.80
2008,08,25,18,12,18.80
2008,08,25,18,13,18.80
2008,08,25,18,14,18.80
2008,08,25,18,15,18.80
2008,08,25,18,16,18.80
2008,08,25,18,17,18.80
2008,08,25,18,18,18.80
2008,08,25,18,19,18.70
2008,08,25,18,20,18.70
2008,08,25,18,21,18.70
2008,08,25,18,22,18.60
2008,08,25,18,23,18.60
2008,08,25,18,24,18.60
2008,08,25,18,25,18.50
2008,08,25,18,26,18.50
2008,08,25,18,27,18.40
2008,08,25,18,28,18.30
2008,08,25,18,29,18.30
2008,08,25,18,30,18.30
2008,08,25,18,31,18.20
2008,08,25,18,32,18.20
2008,08,25,18,33,18.20
2008,08,25,18,34,18.10
2008,08,25,18,35,18.10
2008,08,25,18,36,18.10
2008,08,25,18,37,18.10
2008,08,25,18,38,18.10
2008,08,25,18,39,18.10
2008,08,25,18,40,18.00
2008,08,25,18,41,18.00
2008,08,25,18,42,17.90
2008,08,25,18,43,17.90
2008,08,25,18,44,17.80
2008,08,25,18,45,17.80
2008,08,25,18,46,17.70
2008,08,25,18,47,17.70
2008,08,25,18,48,17.70
2008,08,25,18,49,17.70
2008,08,25,18,50,17.70
2008,08,25,18,51,17.70
2008,08,25,18,52,17.70
2008,08,25,18,53,17.70
2008,08,25,18,54,17.70
2008,08,25,18,55,17.70
2008,08,25,18,56,17.70
2008,08,25,18,57,17.60
2008,08,25,18,58,17.60
2008,08,25,18,59,17.50
2008,08,25,19,00,17.50
2008,08,25,19,01,17.40
2008,08,25,19,02,17.40
2008,08,25,19,03,17.40
2008,08,25,19,04,17.40
2008,08,25,19,05,17.30
2008,08,25,19,06,17.30
2008,08,25,19,07,17.30
2008,08,25,19,08,17.30
2008,08,25,19,09,17.20
2008,08,25,19,10,17.20
2008,08,25,19,11,17.20
2008,08,25,19,12,17.10
2008,08,25,19,13,17.00
2008,08,25,19,14,17.00
2008,08,25,19,15,16.90
2008,08,25,19,16,16.90
2008,08,25,19,17,16.90
2008,08,25,19,18,16.90
2008,08,25,19,19,16.80
2008,08,25,19,20,16.80
2008,08,25,19,21,16.80
2008,08,25,19,22,16.80
2008,08,25,19,23,16.80
2008,08,25,19,24,16.80
2008,08,25,19,25,16.80
2008,08,25,19,26,16.70
2008,08,25,19,27,16.70
2008,08,25,19,28,16.70
2008,08,25,19,29,16.60
2008,08,25,19,30,16.60
2008,08,25,19,31,16.60
2008,08,25,19,32,16.50
2008,08,25,19,33,16.50
2008,08,25,19,34,16.40
2008,08,25,19,35,16.40
2008,08,25,19,36,16.40
2008,08,25,19,37,16.30
2008,08,25,19,38,16.30
2008,08,25,19,39,16.30
2008,08,25,19,40,16.30
2008,08,25,19,41,16.20
2008,08,25,19,42,16.20
2008,08,25,19,43,16.20
2008,08,25,19,44,16.20
2008,08,25,19,45,16.10
2008,08,25,19,46,16.10
2008,08,25,19,47,16.00
2008,08,25,19,48,15.90
2008,08,25,19,49,15.90
2008,08,25,19,50,15.90
2008,08,25,19,51,15.80
2008,08,25,19,52,15.80
2008,08,25,19,53,15.70
2008,08,25,19,54,15.70
2008,08,25,19,55,15.70
2008,08,25,19,56,15.60
2008,08,25,19,57,15.60
2008,08,25,19,58,15.50
2008,08,25,19,59,15.50
2008,08,25,20,00,15.40
2008,08,25,20,01,15.40
2008,08,25,20,02,15.40
2008,08,25,20,03,15.30
2008,08,25,20,04,15.30
2008,08,25,20,05,15.30
2008,08,25,20,06,15.20
2008,08,25,20,07,15.20
2008,08,25,20,08,15.20
2008,08,25,20,09,15.10
2008,08,25,20,10,15.10
2008,08,25,20,11,15.10
2008,08,25,20,12,15.00
2008,08,25,20,13,15.00
2008,08,25,20,14,15.00
2008,08,25,20,15,15.00
2008,08,25,20,16,15.00
2008,08,25,20,17,15.00
2008,08,25,20,18,15.00
2008,08,25,20,19,15.00
2008,08,25,20,20,15.00
2008,08,25,20,21,15.00
2008,08,25,20,22,15.00
2008,08,25,20,23,15.00
2008,08,25,20,24,15.00
2008,08,25,20,25,15.00
2008,08,25,20,26,14.90
2008,08,25,20,27,14.90
2008,08,25,20,28,14.80
2008,08,25,20,29,14.80
2008,08,25,20,30,14.80
2008,08,25,20,31,14.70
2008,08,25,20,32,14.70
2008,08,25,20,33,14.60
2008,08,25,20,34,14.60
2008,08,25,20,35,14.50
2008,08,25,20,36,14.50
2008,08,25,20,37,14.40
2008,08,25,20,38,14.40
2008,08,25,20,39,14.30
2008,08,25,20,40,14.30
2008,08,25,20,41,14.20
2008,08,25,20,42,14.20
2008,08,25,20,43,14.10
2008,08,25,20,44,14.10
2008,08,25,20,45,14.00
2008,08,25,20,46,14.00
2008,08,25,20,47,13.90
2008,08,25,20,48,13.80
2008,08,25,20,49,13.80
2008,08,25,20,50,13.80
2008,08,25,20,51,13.70
2008,08,25,20,52,13.70
2008,08,25,20,53,13.70
2008,08,25,20,54,13.60
2008,08,25,20,55,13.60
2008,08,25,20,56,13.50
2008,08,25,20,57,13.50
2008,08,25,20,58,13.50
2008,08,25,20,59,13.50
2008,08,25,21,00,13.60
2008,08,25,21,01,13.70
2008,08,25,21,02,13.80
2008,08,25,21,03,13.80
2008,08,25,21,04,13.80
2008,08,25,21,05,13.80
2008,08,25,21,06,13.90
2008,08,25,21,07,13.90
2008,08,25,21,08,13.90
2008,08,25,21,09,13.90
2008,08,25,21,10,13.90
2008,08,25,21,11,13.90
2008,08,25,21,12,13.90
2008,08,25,21,13,13.90
2008,08,25,21,14,13.80
2008,08,25,21,15,13.80
2008,08,25,21,16,13.80
2008,08,25,21,17,13.80
2008,08,25,21,18,13.70
2008,08,25,21,19,13.70
2008,08,25,21,20,13.60
2008,08,25,21,21,13.50
2008,08,25,21,22,13.50
2008,08,25,21,23,13.40
2008,08,25,21,24,13.40
2008,08,25,21,25,13.30
2008,08,25,21,26,13.20
2008,08,25,21,27,13.20
2008,08,25,21,28,13.10
2008,08,25,21,29,13.10
2008,08,25,21,30,13.00
2008,08,25,21,31,13.00
2008,08,25,21,32,12.90
2008,08,25,21,33,12.90
2008,08,25,21,34,12.80
2008,08,25,21,35,12.80
2008,08,25,21,36,12.80
2008,08,25,21,37,12.70
2008,08,25,21,38,12.70
2008,08,25,21,39,12.70
2008,08,25,21,40,12.60
2008,08,25,21,41,12.60
2008,08,25,21,42,12.60
2008,08,25,21,43,12.60
2008,08,25,21,44,12.50
2008,08,25,21,45,12.50
2008,08,25,21,46,12.50
2008,08,25,21,47,12.40
2008,08,25,21,48,12.40
2008,08,25,21,49,12.40
2008,08,25,21,50,12.40
2008,08,25,21,51,12.40
2008,08,25,21,52,12.40
2008,08,25,21,53,12.30
2008,08,25,21,54,12.30
2008,08,25,21,55,12.30
2008,08,25,21,56,12.30
2008,08,25,21,57,12.30
2008,08,25,21,58,12.30
2008,08,25,21,59,12.30
2008,08,25,22,00,12.30
2008,08,25,22,01,12.30
2008,08,25,22,02,12.30
2008,08,25,22,03,12.30
2008,08,25,22,04,12.30
2008,08,25,22,05,12.30
2008,08,25,22,06,12.30
2008,08,25,22,07,12.30
2008,08,25,22,08,12.20
2008,08,25,22,09,12.20
2008,08,25,22,10,12.20
2008,08,25,22,11,12.20
2008,08,25,22,12,12.20
2008,08,25,22,13,12.20
2008,08,25,22,14,12.20
2008,08,25,22,15,12.20
2008,08,25,22,16,12.20
2008,08,25,22,17,12.20
2008,08,25,22,18,12.30
2008,08,25,22,19,12.40
2008,08,25,22,20,12.40
2008,08,25,22,21,12.50
2008,08,25,22,22,12.50
2008,08,25,22,23,12.50
2008,08,25,22,24,12.50
2008,08,25,22,25,12.40
2008,08,25,22,26,12.40
2008,08,25,22,27,12.40
2008,08,25,22,28,12.30
2008,08,25,22,29,12.30
2008,08,25,22,30,12.30
2008,08,25,22,31,12.30
2008,08,25,22,32,12.20
2008,08,25,22,33,12.20
2008,08,25,22,34,12.20
2008,08,25,22,35,12.20
2008,08,25,22,36,12.10
2008,08,25,22,37,12.10
2008,08,25,22,38,12.10
2008,08,25,22,39,12.00
2008,08,25,22,40,12.00
2008,08,25,22,41,12.00
2008,08,25,22,42,12.00
2008,08,25,22,43,11.90
2008,08,25,22,44,11.90
2008,08,25,22,45,11.90
2008,08,25,22,46,11.90
2008,08,25,22,47,11.90
2008,08,25,22,48,11.80
2008,08,25,22,49,11.80
2008,08,25,22,50,11.80
2008,08,25,22,51,11.80
2008,08,25,22,52,11.80
2008,08,25,22,53,11.80
2008,08,25,22,54,11.80
2008,08,25,22,55,11.70
2008,08,25,22,56,11.70
2008,08,25,22,57,11.70
2008,08,25,22,58,11.70
2008,08,25,22,59,11.70
2008,08,25,23,00,11.70
2008,08,25,23,01,11.60
2008,08,25,23,02,11.60
2008,08,25,23,03,11.60
2008,08,25,23,04,11.60
2008,08,25,23,05,11.60
2008,08,25,23,06,11.60
2008,08,25,23,07,11.50
2008,08,25,23,08,11.50
2008,08,25,23,09,11.50
2008,08,25,23,10,11.50
2008,08,25,23,11,11.50
2008,08,25,23,12,11.40
2008,08,25,23,13,11.40
2008,08,25,23,14,11.40
2008,08,25,23,15,11.40
2008,08,25,23,16,11.40
2008,08,25,23,17,11.40
2008,08,25,23,18,11.30
2008,08,25,23,19,11.30
2008,08,25,23,20,11.30
2008,08,25,23,21,11.30
2008,08,25,23,22,11.30
2008,08,25,23,23,11.20
2008,08,25,23,24,11.20
2008,08,25,23,25,11.20
2008,08,25,23,26,11.20
2008,08,25,23,27,11.20
2008,08,25,23,28,11.20
2008,08,25,23,29,11.10
2008,08,25,23,30,11.10
2008,08,25,23,31,11.10
2008,08,25,23,32,11.10
2008,08,25,23,33,11.10
2008,08,25,23,34,11.10
2008,08,25,23,35,11.10
2008,08,25,23,36,11.10
2008,08,25,23,37,11.10
2008,08,25,23,38,11.10
2008,08,25,23,39,11.10
2008,08,25,23,40,11.10
2008,08,25,23,41,11.10
2008,08,25,23,42,11.10
2008,08,25,23,43,11.10
2008,08,25,23,44,11.10
2008,08,25,23,45,11.10
2008,08,25,23,46,11.10
2008,08,25,23,47,11.10
2008,08,25,23,48,11.10
2008,08,25,23,49,11.10
2008,08,25,23,50,11.10
2008,08,25,23,51,11.10
2008,08,25,23,52,11.10
2008,08,25,23,53,11.10
2008,08,25,23,54,11.10
2008,08,25,23,55,11.10
2008,08,25,23,56,11.00
2008,08,25,23,57,11.00
2008,08,25,23,58,11.00
2008,08,25,23,59,11.00
